| time (UTC) | temp F | wind direction | speed MPH | gust MPH | rain 1hr in | rain 24hr in | rain mn in | humidity % | barometer mb |
| 20260506005125 | 72 | 20 | 6.0 | 11.0 | 0.00 | 0.01 | 0.00 | 85 | 1014.1 |
| 20260506005004 | 72 | 71 | 4.0 | 11.0 | 0.00 | 0.01 | 0.00 | 85 | 1014.1 |
| 20260506004614 | 72 | 55 | 2.0 | 5.0 | 0.00 | 0.01 | 0.00 | 85 | 1014.1 |
| 20260506004504 | 72 | 24 | 0.0 | 7.0 | 0.00 | 0.01 | 0.00 | 85 | 1014.1 |
| 20260506004105 | 72 | 78 | 4.0 | 10.0 | 0.00 | 0.01 | 0.00 | 85 | 1014.1 |
| 20260506004003 | 72 | 54 | 5.0 | 10.0 | 0.00 | 0.01 | 0.00 | 85 | 1014.2 |
| 20260506003555 | 72 | 39 | 1.0 | 4.0 | 0.00 | 0.01 | 0.00 | 85 | 1014.2 |
| 20260506003504 | 72 | 293 | 1.0 | 7.0 | 0.00 | 0.01 | 0.00 | 85 | 1014.1 |
| 20260506003044 | 72 | 241 | 6.0 | 11.0 | 0.00 | 0.01 | 0.00 | 85 | 1014.1 |
| 20260506003003 | 72 | 230 | 6.0 | 11.0 | 0.00 | 0.01 | 0.00 | 85 | 1014.1 |
| 20260506002503 | 72 | 245 | 1.0 | 4.0 | 0.00 | 0.01 | 0.00 | 85 | 1014.0 |
| 20260506002024 | 72 | 53 | 0.0 | 7.0 | 0.00 | 0.01 | 0.00 | 85 | 1013.9 |
| 20260506002004 | 72 | 178 | 0.0 | 7.0 | 0.00 | 0.01 | 0.00 | 85 | 1013.9 |
| 20260506001514 | 72 | 99 | 0.0 | 5.0 | 0.00 | 0.01 | 0.00 | 85 | 1013.9 |
| 20260506001503 | 72 | 323 | 0.0 | 5.0 | 0.00 | 0.01 | 0.00 | 85 | 1013.9 |
| 20260506001006 | 72 | 320 | 2.0 | 8.0 | 0.00 | 0.01 | 0.00 | 85 | 1013.7 |
| 20260506001003 | 72 | 287 | 2.0 | 8.0 | 0.00 | 0.01 | 0.00 | 85 | 1013.7 |
| 20260506000503 | 72 | 72 | 3.0 | 18.0 | 0.00 | 0.01 | 0.00 | 85 | 1013.8 |
| 20260506000455 | 72 | 54 | 3.0 | 18.0 | 0.00 | 0.01 | 0.00 | 85 | 1013.8 |
| 20260506000003 | 72 | 19 | 3.0 | 15.0 | 0.00 | 0.01 | 0.00 | 85 | 1013.7 |
| 20260505235944 | 72 | 32 | 3.0 | 15.0 | 0.00 | 0.01 | 0.00 | 85 | 1013.7 |
| 20260505235503 | 72 | 242 | 1.0 | 8.0 | 0.00 | 0.01 | 0.00 | 85 | 1013.7 |
| 20260505235435 | 72 | 339 | 1.0 | 8.0 | 0.00 | 0.01 | 0.00 | 85 | 1013.7 |
| 20260505235002 | 72 | 59 | 5.0 | 12.0 | 0.00 | 0.01 | 0.00 | 84 | 1013.7 |
| 20260505234924 | 72 | 7 | 2.0 | 12.0 | 0.00 | 0.01 | 0.00 | 84 | 1013.7 |
| 20260505234503 | 72 | 311 | 5.0 | 13.0 | 0.00 | 0.01 | 0.00 | 84 | 1013.7 |
| 20260505234414 | 72 | 337 | 3.0 | 13.0 | 0.00 | 0.01 | 0.00 | 84 | 1013.6 |
| 20260505233905 | 72 | 47 | 3.0 | 17.0 | 0.00 | 0.01 | 0.00 | 84 | 1013.6 |
| 20260505233503 | 72 | 39 | 4.0 | 11.0 | 0.00 | 0.01 | 0.00 | 85 | 1013.6 |
| 20260505233354 | 72 | 13 | 3.0 | 12.0 | 0.00 | 0.01 | 0.00 | 85 | 1013.6 |
| 20260505233003 | 72 | 67 | 8.0 | 12.0 | 0.00 | 0.01 | 0.00 | 85 | 1013.6 |
| 20260505232503 | 72 | 41 | 3.0 | 17.0 | 0.00 | 0.01 | 0.00 | 85 | 1013.6 |
| 20260505232334 | 72 | 239 | 7.0 | 17.0 | 0.00 | 0.01 | 0.00 | 85 | 1013.4 |
| 20260505232003 | 72 | 261 | 5.0 | 14.0 | 0.00 | 0.01 | 0.00 | 85 | 1013.5 |
| 20260505231824 | 72 | 95 | 1.0 | 8.0 | 0.00 | 0.01 | 0.00 | 85 | 1013.5 |
| 20260505231503 | 72 | 255 | 2.0 | 5.0 | 0.00 | 0.01 | 0.00 | 85 | 1013.5 |
| 20260505231313 | 72 | 17 | 2.0 | 5.0 | 0.00 | 0.01 | 0.00 | 85 | 1013.5 |
| 20260505231002 | 71 | 355 | 1.0 | 6.0 | 0.00 | 0.01 | 0.00 | 85 | 1013.6 |
| 20260505230804 | 71 | 259 | 3.0 | 6.0 | 0.00 | 0.01 | 0.00 | 85 | 1013.5 |
| 20260505230503 | 71 | 215 | 0.0 | 8.0 | 0.00 | 0.01 | 0.00 | 85 | 1013.5 |
| 20260505230254 | 71 | 46 | 3.0 | 8.0 | 0.00 | 0.01 | 0.00 | 85 | 1013.5 |
| 20260505230003 | 71 | 257 | 1.0 | 6.0 | 0.00 | 0.01 | 0.00 | 85 | 1013.5 |
| 20260505225744 | 71 | 343 | 1.0 | 6.0 | 0.00 | 0.01 | 0.00 | 85 | 1013.5 |
| 20260505225502 | 71 | 223 | 0.0 | 10.0 | 0.00 | 0.01 | 0.00 | 85 | 1013.5 |
| 20260505225234 | 71 | 39 | 4.0 | 10.0 | 0.00 | 0.01 | 0.00 | 85 | 1013.5 |
| 20260505225002 | 71 | 63 | 0.0 | 3.0 | 0.00 | 0.01 | 0.00 | 85 | 1013.4 |
| 20260505224724 | 71 | 245 | 2.0 | 5.0 | 0.00 | 0.01 | 0.00 | 85 | 1013.3 |
| 20260505224503 | 71 | 291 | 2.0 | 5.0 | 0.00 | 0.01 | 0.00 | 85 | 1013.3 |
| 20260505224213 | 71 | 213 | 2.0 | 5.0 | 0.00 | 0.01 | 0.00 | 85 | 1013.3 |
| 20260505224002 | 71 | 10 | 2.0 | 7.0 | 0.00 | 0.01 | 0.00 | 85 | 1013.3 |
| 20260505223704 | 71 | 260 | 3.0 | 7.0 | 0.00 | 0.01 | 0.00 | 85 | 1013.2 |
| 20260505223502 | 71 | 232 | 0.0 | 9.0 | 0.00 | 0.01 | 0.00 | 85 | 1013.3 |
| 20260505223154 | 71 | 12 | 4.0 | 9.0 | 0.00 | 0.01 | 0.00 | 85 | 1013.2 |
| 20260505223003 | 71 | 69 | 1.0 | 6.0 | 0.00 | 0.01 | 0.00 | 86 | 1013.2 |
| 20260505222643 | 71 | 138 | 0.0 | 10.0 | 0.00 | 0.01 | 0.00 | 86 | 1013.2 |
| 20260505222502 | 71 | 191 | 6.0 | 10.0 | 0.00 | 0.01 | 0.00 | 86 | 1013.1 |
| 20260505222134 | 71 | 39 | 1.0 | 5.0 | 0.00 | 0.01 | 0.00 | 86 | 1013.1 |
| 20260505222002 | 71 | 269 | 1.0 | 5.0 | 0.00 | 0.01 | 0.00 | 86 | 1013.1 |
| 20260505221624 | 71 | 5 | 1.0 | 7.0 | 0.00 | 0.01 | 0.00 | 86 | 1013.0 |
| 20260505221503 | 71 | 261 | 1.0 | 7.0 | 0.00 | 0.01 | 0.00 | 86 | 1013.0 |
| 20260505221113 | 71 | 224 | 2.0 | 7.0 | 0.00 | 0.01 | 0.00 | 86 | 1013.0 |
| 20260505221002 | 71 | 340 | 1.0 | 7.0 | 0.00 | 0.01 | 0.00 | 86 | 1013.0 |
| 20260505220603 | 71 | 235 | 0.0 | 4.0 | 0.00 | 0.01 | 0.00 | 86 | 1013.0 |
| 20260505220502 | 71 | 338 | 1.0 | 6.0 | 0.00 | 0.01 | 0.00 | 86 | 1013.0 |
| 20260505220054 | 71 | 259 | 3.0 | 5.0 | 0.00 | 0.01 | 0.00 | 86 | 1012.9 |
| 20260505220002 | 71 | 282 | 0.0 | 7.0 | 0.00 | 0.01 | 0.00 | 86 | 1012.9 |
| 20260505215543 | 71 | 249 | 3.0 | 7.0 | 0.00 | 0.01 | 0.00 | 85 | 1012.9 |
| 20260505215502 | 71 | 277 | 3.0 | 6.0 | 0.00 | 0.01 | 0.00 | 85 | 1012.9 |
| 20260505215033 | 71 | 311 | 0.0 | 4.0 | 0.00 | 0.01 | 0.00 | 85 | 1012.9 |
| 20260505215002 | 71 | 341 | 0.0 | 4.0 | 0.00 | 0.01 | 0.00 | 85 | 1012.8 |
| 20260505214524 | 71 | 37 | 1.0 | 5.0 | 0.00 | 0.01 | 0.00 | 85 | 1012.8 |
| 20260505214502 | 71 | 301 | 2.0 | 5.0 | 0.00 | 0.01 | 0.00 | 85 | 1012.8 |
| 20260505214002 | 71 | 276 | 1.0 | 5.0 | 0.00 | 0.01 | 0.00 | 85 | 1012.8 |
| 20260505213504 | 71 | 26 | 1.0 | 10.0 | 0.00 | 0.01 | 0.00 | 85 | 1012.9 |
| 20260505213502 | 71 | 41 | 1.0 | 10.0 | 0.00 | 0.01 | 0.00 | 85 | 1012.9 |
| 20260505213002 | 71 | 175 | 7.0 | 11.0 | 0.00 | 0.01 | 0.00 | 85 | 1012.8 |
| 20260505212953 | 71 | 244 | 7.0 | 11.0 | 0.00 | 0.01 | 0.00 | 85 | 1012.8 |
| 20260505212501 | 71 | 264 | 4.0 | 8.0 | 0.00 | 0.01 | 0.00 | 85 | 1012.9 |
| 20260505212443 | 71 | 230 | 2.0 | 8.0 | 0.00 | 0.01 | 0.00 | 85 | 1012.9 |
| 20260505212002 | 71 | 252 | 3.0 | 11.0 | 0.00 | 0.01 | 0.00 | 85 | 1012.9 |
| 20260505211933 | 71 | 251 | 2.0 | 11.0 | 0.00 | 0.01 | 0.00 | 85 | 1012.8 |
| 20260505211502 | 71 | 284 | 1.0 | 6.0 | 0.00 | 0.01 | 0.00 | 85 | 1012.7 |
| 20260505211424 | 71 | 295 | 3.0 | 7.0 | 0.00 | 0.01 | 0.00 | 85 | 1012.7 |
| 20260505211001 | 71 | 269 | 5.0 | 9.0 | 0.00 | 0.01 | 0.00 | 85 | 1012.7 |
| 20260505210913 | 71 | 244 | 5.0 | 9.0 | 0.00 | 0.01 | 0.00 | 85 | 1012.7 |
| 20260505210502 | 71 | 281 | 3.0 | 10.0 | 0.00 | 0.01 | 0.00 | 85 | 1012.7 |
| 20260505210403 | 71 | 253 | 6.0 | 10.0 | 0.00 | 0.01 | 0.00 | 85 | 1012.7 |
| 20260505210001 | 71 | 251 | 1.0 | 9.0 | 0.00 | 0.01 | 0.00 | 85 | 1012.6 |
| 20260505205853 | 71 | 1 | 4.0 | 9.0 | 0.00 | 0.01 | 0.00 | 85 | 1012.6 |
| 20260505205502 | 71 | 251 | 1.0 | 15.0 | 0.00 | 0.01 | 0.00 | 85 | 1012.5 |
| 20260505205343 | 71 | 255 | 10.0 | 15.0 | 0.00 | 0.01 | 0.00 | 85 | 1012.4 |
| 20260505205002 | 71 | 274 | 2.0 | 13.0 | 0.00 | 0.01 | 0.00 | 85 | 1012.4 |
| 20260505204833 | 71 | 285 | 6.0 | 13.0 | 0.00 | 0.01 | 0.00 | 85 | 1012.5 |
| 20260505204501 | 71 | 254 | 8.0 | 14.0 | 0.00 | 0.01 | 0.00 | 85 | 1012.4 |
| 20260505204323 | 71 | 256 | 2.0 | 14.0 | 0.00 | 0.01 | 0.00 | 85 | 1012.4 |
| 20260505204001 | 71 | 68 | 3.0 | 14.0 | 0.00 | 0.01 | 0.00 | 85 | 1012.3 |
| 20260505203813 | 71 | 183 | 7.0 | 10.0 | 0.00 | 0.01 | 0.00 | 85 | 1012.3 |
| 20260505203501 | 71 | 232 | 3.0 | 8.0 | 0.00 | 0.01 | 0.00 | 85 | 1012.3 |
| 20260505203303 | 71 | 266 | 4.0 | 7.0 | 0.00 | 0.01 | 0.00 | 85 | 1012.3 |
| 20260505203002 | 71 | 350 | 3.0 | 14.0 | 0.00 | 0.01 | 0.00 | 85 | 1012.3 |
| 20260505202753 | 71 | 274 | 4.0 | 14.0 | 0.00 | 0.01 | 0.00 | 85 | 1012.3 |
| 20260505202501 | 71 | 263 | 5.0 | 12.0 | 0.00 | 0.01 | 0.00 | 85 | 1012.4 |
| 20260505202242 | 71 | 278 | 7.0 | 12.0 | 0.00 | 0.01 | 0.00 | 85 | 1012.4 |
| 20260505202001 | 71 | 239 | 4.0 | 9.0 | 0.00 | 0.01 | 0.00 | 85 | 1012.3 |
| 20260505201733 | 70 | 260 | 1.0 | 11.0 | 0.00 | 0.01 | 0.00 | 85 | 1012.3 |
| 20260505201502 | 70 | 331 | 6.0 | 11.0 | 0.00 | 0.01 | 0.00 | 85 | 1012.3 |
| 20260505201222 | 70 | 192 | 2.0 | 9.0 | 0.00 | 0.01 | 0.00 | 85 | 1012.4 |
| 20260505201001 | 71 | 251 | 5.0 | 9.0 | 0.00 | 0.01 | 0.00 | 85 | 1012.4 |
| 20260505200712 | 71 | 333 | 3.0 | 13.0 | 0.00 | 0.01 | 0.00 | 85 | 1012.4 |
| 20260505200501 | 71 | 196 | 3.0 | 13.0 | 0.00 | 0.01 | 0.00 | 85 | 1012.3 |
| 20260505200203 | 70 | 280 | 4.0 | 13.0 | 0.00 | 0.01 | 0.00 | 85 | 1012.3 |
| 20260505200002 | 70 | 221 | 6.0 | 12.0 | 0.00 | 0.01 | 0.00 | 85 | 1012.4 |
| 20260505195652 | 70 | 238 | 5.0 | 9.0 | 0.00 | 0.01 | 0.00 | 85 | 1012.3 |
| 20260505195501 | 70 | 274 | 2.0 | 14.0 | 0.00 | 0.01 | 0.00 | 85 | 1012.3 |
| 20260505195142 | 70 | 174 | 4.0 | 14.0 | 0.00 | 0.01 | 0.00 | 85 | 1012.3 |
| 20260505195001 | 70 | 113 | 5.0 | 12.0 | 0.00 | 0.01 | 0.00 | 85 | 1012.4 |
| 20260505194633 | 70 | 199 | 4.0 | 10.0 | 0.00 | 0.01 | 0.00 | 86 | 1012.4 |
| 20260505194501 | 70 | 219 | 3.0 | 9.0 | 0.00 | 0.01 | 0.00 | 86 | 1012.4 |
| 20260505194123 | 70 | 281 | 3.0 | 10.0 | 0.00 | 0.01 | 0.00 | 86 | 1012.4 |
| 20260505194000 | 70 | 34 | 4.0 | 12.0 | 0.00 | 0.01 | 0.00 | 85 | 1012.4 |
| 20260505193612 | 70 | 244 | 7.0 | 12.0 | 0.00 | 0.01 | 0.00 | 86 | 1012.3 |
| 20260505193501 | 70 | 238 | 5.0 | 11.0 | 0.00 | 0.01 | 0.00 | 86 | 1012.3 |
| 20260505193102 | 70 | 35 | 4.0 | 17.0 | 0.00 | 0.01 | 0.00 | 86 | 1012.3 |
| 20260505193001 | 70 | 360 | 3.0 | 17.0 | 0.00 | 0.01 | 0.00 | 86 | 1012.4 |
| 20260505192553 | 70 | 350 | 1.0 | 5.0 | 0.00 | 0.01 | 0.00 | 86 | 1012.3 |
| 20260505192501 | 70 | 255 | 3.0 | 5.0 | 0.00 | 0.01 | 0.00 | 86 | 1012.3 |
| 20260505192042 | 70 | 236 | 2.0 | 10.0 | 0.00 | 0.01 | 0.00 | 85 | 1012.3 |
| 20260505192001 | 70 | 241 | 3.0 | 10.0 | 0.00 | 0.01 | 0.00 | 85 | 1012.3 |
| 20260505191532 | 70 | 238 | 2.0 | 9.0 | 0.00 | 0.01 | 0.00 | 86 | 1012.4 |
| 20260505191501 | 70 | 225 | 2.0 | 9.0 | 0.00 | 0.01 | 0.00 | 86 | 1012.3 |
| 20260505191022 | 70 | 257 | 4.0 | 11.0 | 0.00 | 0.01 | 0.00 | 85 | 1012.4 |
| 20260505191001 | 70 | 243 | 5.0 | 11.0 | 0.00 | 0.01 | 0.00 | 85 | 1012.3 |
| 20260505190513 | 70 | 36 | 4.0 | 10.0 | 0.00 | 0.01 | 0.00 | 86 | 1012.2 |
| 20260505190501 | 70 | 15 | 4.0 | 9.0 | 0.00 | 0.01 | 0.00 | 86 | 1012.2 |
| 20260505190003 | 70 | 68 | 2.0 | 10.0 | 0.00 | 0.01 | 0.00 | 86 | 1012.3 |
| 20260505190000 | 70 | 93 | 2.0 | 10.0 | 0.00 | 0.01 | 0.00 | 86 | 1012.2 |
| 20260505185501 | 70 | 204 | 2.0 | 8.0 | 0.00 | 0.01 | 0.00 | 86 | 1012.3 |
| 20260505185452 | 70 | 214 | 3.0 | 8.0 | 0.00 | 0.01 | 0.00 | 86 | 1012.3 |
| 20260505185000 | 70 | 333 | 6.0 | 13.0 | 0.00 | 0.01 | 0.00 | 86 | 1012.4 |
| 20260505184942 | 70 | 11 | 6.0 | 13.0 | 0.00 | 0.01 | 0.00 | 86 | 1012.3 |
| 20260505184500 | 70 | 282 | 1.0 | 5.0 | 0.00 | 0.01 | 0.00 | 86 | 1012.3 |
| 20260505184432 | 70 | 360 | 1.0 | 6.0 | 0.00 | 0.01 | 0.00 | 86 | 1012.4 |
| 20260505184001 | 70 | 302 | 4.0 | 11.0 | 0.00 | 0.01 | 0.00 | 86 | 1012.4 |
| 20260505183922 | 70 | 252 | 6.0 | 11.0 | 0.00 | 0.01 | 0.00 | 86 | 1012.4 |
| 20260505183500 | 70 | 251 | 6.0 | 10.0 | 0.00 | 0.01 | 0.00 | 86 | 1012.5 |
| 20260505183411 | 70 | 288 | 1.0 | 9.0 | 0.00 | 0.01 | 0.00 | 86 | 1012.5 |
| 20260505183000 | 70 | 269 | 1.0 | 10.0 | 0.00 | 0.01 | 0.00 | 87 | 1012.5 |
| 20260505182902 | 70 | 235 | 0.0 | 10.0 | 0.00 | 0.01 | 0.00 | 87 | 1012.5 |
| 20260505182501 | 70 | 245 | 1.0 | 6.0 | 0.00 | 0.01 | 0.00 | 87 | 1012.6 |
| 20260505182352 | 70 | 278 | 0.0 | 6.0 | 0.00 | 0.01 | 0.00 | 87 | 1012.6 |
| 20260505182000 | 70 | 323 | 3.0 | 10.0 | 0.00 | 0.01 | 0.00 | 87 | 1012.6 |
| 20260505181841 | 70 | 208 | 3.0 | 10.0 | 0.00 | 0.01 | 0.00 | 87 | 1012.6 |
| 20260505181500 | 70 | 240 | 2.0 | 10.0 | 0.00 | 0.01 | 0.00 | 87 | 1012.5 |
| 20260505181332 | 70 | 31 | 4.0 | 10.0 | 0.00 | 0.01 | 0.00 | 87 | 1012.5 |
| 20260505181001 | 70 | 219 | 2.0 | 10.0 | 0.00 | 0.01 | 0.00 | 87 | 1012.5 |
| 20260505180822 | 70 | 260 | 4.0 | 10.0 | 0.00 | 0.01 | 0.00 | 87 | 1012.4 |
| 20260505180500 | 70 | 262 | 2.0 | 8.0 | 0.00 | 0.01 | 0.00 | 87 | 1012.5 |
| 20260505180311 | 70 | 306 | 2.0 | 8.0 | 0.00 | 0.01 | 0.00 | 87 | 1012.4 |
| 20260505180000 | 70 | 307 | 2.0 | 10.0 | 0.00 | 0.01 | 0.00 | 87 | 1012.4 |
| 20260505175801 | 70 | 11 | 1.0 | 10.0 | 0.00 | 0.01 | 0.00 | 88 | 1012.5 |
| 20260505175500 | 70 | 219 | 4.0 | 22.0 | 0.00 | 0.01 | 0.00 | 88 | 1012.5 |
| 20260505175252 | 70 | 347 | 3.0 | 22.0 | 0.00 | 0.01 | 0.00 | 88 | 1012.6 |
| 20260505175001 | 70 | 229 | 6.0 | 12.0 | 0.00 | 0.01 | 0.00 | 88 | 1012.6 |
| 20260505174741 | 70 | 263 | 5.0 | 12.0 | 0.00 | 0.01 | 0.00 | 88 | 1012.7 |
| 20260505174500 | 70 | 247 | 4.0 | 9.0 | 0.00 | 0.01 | 0.00 | 88 | 1012.6 |
| 20260505174231 | 70 | 275 | 3.0 | 8.0 | 0.00 | 0.01 | 0.00 | 88 | 1012.6 |
| 20260505174000 | 70 | 273 | 2.0 | 8.0 | 0.00 | 0.01 | 0.00 | 88 | 1012.6 |
| 20260505173722 | 70 | 236 | 5.0 | 10.0 | 0.00 | 0.01 | 0.00 | 88 | 1012.7 |
| 20260505173212 | 70 | 262 | 0.0 | 4.0 | 0.00 | 0.01 | 0.00 | 88 | 1012.7 |
| 20260505172701 | 70 | 72 | 2.0 | 7.0 | 0.00 | 0.01 | 0.00 | 88 | 1012.8 |
| 20260505172500 | 70 | 6 | 1.0 | 9.0 | 0.00 | 0.01 | 0.00 | 88 | 1012.7 |
| 20260505172151 | 70 | 14 | 3.0 | 9.0 | 0.00 | 0.01 | 0.00 | 88 | 1012.7 |
| 20260505172000 | 70 | 270 | 1.0 | 9.0 | 0.00 | 0.01 | 0.00 | 89 | 1012.8 |
| 20260505171642 | 70 | 12 | 1.0 | 6.0 | 0.00 | 0.01 | 0.00 | 89 | 1012.9 |
| 20260505171500 | 70 | 262 | 5.0 | 6.0 | 0.00 | 0.01 | 0.00 | 89 | 1012.9 |
| 20260505171131 | 70 | 290 | 0.0 | 7.0 | 0.00 | 0.01 | 0.00 | 89 | 1013.0 |
| 20260505170959 | 70 | 255 | 4.0 | 7.0 | 0.00 | 0.01 | 0.00 | 89 | 1013.0 |
| 20260505170621 | 70 | 265 | 3.0 | 7.0 | 0.00 | 0.01 | 0.00 | 89 | 1013.0 |
| 20260505170500 | 70 | 325 | 2.0 | 7.0 | 0.00 | 0.01 | 0.00 | 89 | 1013.0 |
| 20260505170111 | 70 | 252 | 1.0 | 8.0 | 0.00 | 0.01 | 0.00 | 89 | 1013.0 |
| 20260505170000 | 70 | 264 | 3.0 | 11.0 | 0.00 | 0.01 | 0.00 | 89 | 1012.9 |
| 20260505165459 | 69 | 311 | 2.0 | 9.0 | 0.00 | 0.01 | 0.00 | 89 | 1013.0 |
| 20260505165051 | 70 | 274 | 2.0 | 10.0 | 0.00 | 0.01 | 0.00 | 89 | 1013.0 |
| 20260505165000 | 70 | 265 | 0.0 | 10.0 | 0.00 | 0.01 | 0.00 | 89 | 1013.0 |
| 20260505164541 | 70 | 276 | 3.0 | 8.0 | 0.00 | 0.01 | 0.00 | 89 | 1013.0 |
| 20260505164500 | 70 | 320 | 1.0 | 8.0 | 0.00 | 0.01 | 0.00 | 89 | 1013.1 |
| 20260505164031 | 70 | 46 | 2.0 | 6.0 | 0.00 | 0.01 | 0.00 | 89 | 1013.1 |
| 20260505164000 | 70 | 266 | 3.0 | 6.0 | 0.00 | 0.01 | 0.00 | 89 | 1013.0 |
| 20260505163521 | 70 | 258 | 1.0 | 11.0 | 0.00 | 0.01 | 0.00 | 89 | 1013.0 |
| 20260505163459 | 70 | 276 | 3.0 | 11.0 | 0.00 | 0.01 | 0.00 | 89 | 1013.1 |
| 20260505163011 | 70 | 268 | 1.0 | 10.0 | 0.00 | 0.01 | 0.00 | 89 | 1013.0 |
| 20260505162959 | 70 | 281 | 0.0 | 10.0 | 0.00 | 0.01 | 0.00 | 89 | 1013.1 |
| 20260505162502 | 70 | 246 | 3.0 | 9.0 | 0.00 | 0.01 | 0.00 | 89 | 1013.2 |
| 20260505162500 | 70 | 239 | 3.0 | 9.0 | 0.00 | 0.01 | 0.00 | 89 | 1013.2 |
| 20260505161959 | 70 | 255 | 6.0 | 14.0 | 0.00 | 0.01 | 0.00 | 89 | 1013.3 |
| 20260505161951 | 70 | 274 | 7.0 | 14.0 | 0.00 | 0.01 | 0.00 | 89 | 1013.3 |
| 20260505161459 | 70 | 294 | 1.0 | 11.0 | 0.00 | 0.01 | 0.00 | 89 | 1013.4 |
| 20260505161440 | 70 | 307 | 2.0 | 11.0 | 0.00 | 0.01 | 0.00 | 89 | 1013.3 |
| 20260505160959 | 70 | 230 | 5.0 | 15.0 | 0.00 | 0.01 | 0.00 | 89 | 1013.3 |
| 20260505160931 | 70 | 196 | 5.0 | 15.0 | 0.00 | 0.01 | 0.00 | 89 | 1013.4 |
| 20260505160500 | 70 | 258 | 8.0 | 14.0 | 0.00 | 0.01 | 0.00 | 89 | 1013.3 |
| 20260505160421 | 70 | 200 | 9.0 | 14.0 | 0.00 | 0.01 | 0.00 | 89 | 1013.3 |
| 20260505153320 | 70 | 261 | 4.0 | 9.0 | 0.00 | 0.01 | 0.00 | 89 | 1013.7 |
| 20260505152959 | 70 | 253 | 2.0 | 8.0 | 0.00 | 0.01 | 0.00 | 89 | 1013.7 |
| 20260505152810 | 70 | 347 | 3.0 | 8.0 | 0.00 | 0.01 | 0.00 | 89 | 1013.7 |
| 20260505152459 | 70 | 6 | 1.0 | 5.0 | 0.00 | 0.01 | 0.00 | 89 | 1013.7 |
| 20260505152301 | 70 | 253 | 2.0 | 4.0 | 0.00 | 0.01 | 0.00 | 89 | 1013.8 |
| 20260505152000 | 70 | 236 | 0.0 | 9.0 | 0.00 | 0.01 | 0.00 | 89 | 1013.8 |
| 20260505151750 | 70 | 40 | 3.0 | 11.0 | 0.00 | 0.01 | 0.00 | 89 | 1013.8 |
| 20260505151459 | 70 | 310 | 3.0 | 11.0 | 0.00 | 0.01 | 0.00 | 89 | 1013.9 |
| 20260505151240 | 70 | 211 | 7.0 | 11.0 | 0.00 | 0.01 | 0.00 | 89 | 1013.9 |
| 20260505150959 | 70 | 227 | 5.0 | 9.0 | 0.00 | 0.01 | 0.00 | 89 | 1013.9 |
| 20260505150731 | 70 | 304 | 2.0 | 9.0 | 0.00 | 0.01 | 0.00 | 89 | 1013.9 |
| 20260505150458 | 70 | 249 | 3.0 | 6.0 | 0.00 | 0.01 | 0.00 | 89 | 1013.9 |
| 20260505150220 | 70 | 301 | 3.0 | 5.0 | 0.00 | 0.01 | 0.00 | 90 | 1014.0 |
| 20260505140530 | 69 | 261 | 1.0 | 4.0 | 0.00 | 0.01 | 0.00 | 89 | 1014.1 |
| 20260505140459 | 69 | 267 | 1.0 | 4.0 | 0.00 | 0.01 | 0.00 | 89 | 1014.1 |
| 20260505124958 | 69 | 301 | 0.0 | 2.0 | 0.00 | 0.01 | 0.00 | 90 | 1013.8 |
| 20260505124759 | 69 | 350 | 1.0 | 5.0 | 0.00 | 0.01 | 0.00 | 90 | 1013.7 |
| 20260505124457 | 69 | 261 | 2.0 | 5.0 | 0.00 | 0.01 | 0.00 | 90 | 1013.7 |
| 20260505123958 | 69 | 39 | 2.0 | 5.0 | 0.00 | 0.01 | 0.00 | 90 | 1013.7 |
| 20260505123739 | 69 | 343 | 0.0 | 2.0 | 0.00 | 0.01 | 0.00 | 90 | 1013.6 |
| 20260505123458 | 69 | 27 | 0.0 | 1.0 | 0.00 | 0.01 | 0.00 | 90 | 1013.6 |
| 20260505123229 | 69 | 50 | 0.0 | 1.0 | 0.00 | 0.01 | 0.00 | 89 | 1013.6 |
| 20260505122957 | 69 | 26 | 0.0 | 3.0 | 0.00 | 0.01 | 0.00 | 89 | 1013.6 |
| 20260505122719 | 69 | 10 | 1.0 | 4.0 | 0.00 | 0.01 | 0.00 | 89 | 1013.6 |
| 20260505122458 | 69 | 18 | 2.0 | 4.0 | 0.00 | 0.01 | 0.00 | 89 | 1013.6 |
| 20260505122209 | 69 | 35 | 1.0 | 3.0 | 0.00 | 0.01 | 0.00 | 89 | 1013.5 |
| 20260505121958 | 69 | 37 | 1.0 | 3.0 | 0.00 | 0.01 | 0.00 | 89 | 1013.5 |
| 20260505121659 | 69 | 31 | 1.0 | 3.0 | 0.00 | 0.01 | 0.00 | 89 | 1013.5 |
| 20260505121457 | 69 | 57 | 2.0 | 3.0 | 0.00 | 0.01 | 0.00 | 89 | 1013.5 |
| 20260505121149 | 69 | 28 | 1.0 | 2.0 | 0.00 | 0.01 | 0.00 | 89 | 1013.6 |
| 20260505120958 | 69 | 45 | 1.0 | 1.0 | 0.00 | 0.01 | 0.00 | 89 | 1013.6 |
| 20260505120639 | 69 | 346 | 0.0 | 1.0 | 0.00 | 0.01 | 0.00 | 89 | 1013.6 |
| 20260505120457 | 69 | 325 | 0.0 | 1.0 | 0.00 | 0.01 | 0.00 | 89 | 1013.5 |
| 20260505120129 | 69 | 9 | 0.0 | 2.0 | 0.00 | 0.01 | 0.00 | 89 | 1013.5 |
| 20260505115957 | 69 | 44 | 0.0 | 2.0 | 0.00 | 0.01 | 0.00 | 89 | 1013.5 |
| 20260505115619 | 69 | 25 | 0.0 | 1.0 | 0.00 | 0.01 | 0.00 | 89 | 1013.5 |
| 20260505115458 | 69 | 28 | 0.0 | 1.0 | 0.00 | 0.01 | 0.00 | 89 | 1013.4 |
| 20260505114958 | 69 | 216 | 1.0 | 4.0 | 0.00 | 0.01 | 0.00 | 89 | 1013.4 |
| 20260505114559 | 69 | 39 | 0.0 | 3.0 | 0.00 | 0.01 | 0.00 | 89 | 1013.4 |
| 20260505114457 | 69 | 352 | 0.0 | 5.0 | 0.00 | 0.01 | 0.00 | 89 | 1013.4 |
| 20260505113957 | 69 | 14 | 3.0 | 7.0 | 0.00 | 0.01 | 0.00 | 89 | 1013.4 |
| 20260505113539 | 69 | 285 | 2.0 | 5.0 | 0.00 | 0.01 | 0.00 | 89 | 1013.4 |
| 20260505113458 | 69 | 330 | 1.0 | 4.0 | 0.00 | 0.01 | 0.00 | 89 | 1013.3 |
| 20260505113028 | 69 | 258 | 1.0 | 4.0 | 0.00 | 0.01 | 0.00 | 89 | 1013.4 |
| 20260505112957 | 69 | 279 | 0.0 | 2.0 | 0.00 | 0.01 | 0.00 | 89 | 1013.3 |
| 20260505112519 | 69 | 49 | 0.0 | 4.0 | 0.00 | 0.01 | 0.00 | 89 | 1013.2 |
| 20260505112457 | 69 | 99 | 0.0 | 4.0 | 0.00 | 0.01 | 0.00 | 89 | 1013.3 |
| 20260505111956 | 69 | 343 | 0.0 | 2.0 | 0.00 | 0.01 | 0.00 | 89 | 1013.2 |
| 20260505111457 | 69 | 25 | 0.0 | 2.0 | 0.00 | 0.01 | 0.00 | 89 | 1013.2 |
| 20260505110957 | 69 | 66 | 1.0 | 4.0 | 0.00 | 0.01 | 0.00 | 88 | 1013.1 |
| 20260505110949 | 69 | 61 | 1.0 | 4.0 | 0.00 | 0.01 | 0.00 | 88 | 1013.1 |
| 20260505110457 | 69 | 49 | 2.0 | 4.0 | 0.00 | 0.01 | 0.00 | 88 | 1013.1 |
| 20260505110438 | 69 | 74 | 1.0 | 3.0 | 0.00 | 0.01 | 0.00 | 88 | 1013.1 |
| 20260505101957 | 69 | 44 | 0.0 | 4.0 | 0.00 | 0.01 | 0.00 | 88 | 1012.9 |
| 20260505101808 | 69 | 32 | 0.0 | 9.0 | 0.00 | 0.01 | 0.00 | 88 | 1012.8 |
| 20260505101456 | 69 | 40 | 4.0 | 9.0 | 0.00 | 0.01 | 0.00 | 87 | 1012.8 |
| 20260505101258 | 69 | 46 | 1.0 | 4.0 | 0.00 | 0.01 | 0.00 | 87 | 1012.8 |
| 20260505100957 | 69 | 48 | 1.0 | 6.0 | 0.00 | 0.01 | 0.00 | 87 | 1012.8 |
| 20260505100748 | 69 | 59 | 3.0 | 10.0 | 0.00 | 0.01 | 0.00 | 87 | 1012.8 |
| 20260505100457 | 69 | 38 | 6.0 | 10.0 | 0.00 | 0.01 | 0.00 | 87 | 1012.8 |
| 20260505095957 | 70 | 11 | 2.0 | 10.0 | 0.00 | 0.01 | 0.00 | 87 | 1012.8 |
| 20260505095728 | 70 | 45 | 2.0 | 4.0 | 0.00 | 0.01 | 0.00 | 87 | 1012.8 |
| 20260505095456 | 70 | 242 | 0.0 | 4.0 | 0.00 | 0.01 | 0.00 | 87 | 1012.8 |
| 20260505095218 | 70 | 240 | 0.0 | 5.0 | 0.00 | 0.01 | 0.00 | 87 | 1012.8 |
| 20260505094957 | 70 | 250 | 3.0 | 5.0 | 0.00 | 0.01 | 0.00 | 87 | 1012.7 |
| 20260505094707 | 70 | 299 | 1.0 | 4.0 | 0.00 | 0.01 | 0.00 | 87 | 1012.7 |
| 20260505094456 | 70 | 246 | 3.0 | 4.0 | 0.00 | 0.01 | 0.00 | 87 | 1012.6 |
| 20260505094158 | 70 | 252 | 0.0 | 1.0 | 0.00 | 0.01 | 0.00 | 87 | 1012.6 |
| 20260505093956 | 70 | 26 | 0.0 | 5.0 | 0.00 | 0.01 | 0.00 | 87 | 1012.6 |
| 20260505093648 | 70 | 241 | 1.0 | 5.0 | 0.00 | 0.01 | 0.00 | 87 | 1012.6 |
| 20260505093456 | 70 | 248 | 1.0 | 8.0 | 0.00 | 0.01 | 0.00 | 87 | 1012.7 |
| 20260505092956 | 70 | 247 | 3.0 | 5.0 | 0.00 | 0.01 | 0.00 | 87 | 1012.5 |
| 20260505092628 | 70 | 43 | 1.0 | 3.0 | 0.00 | 0.01 | 0.00 | 87 | 1012.6 |
| 20260505092457 | 70 | 19 | 0.0 | 3.0 | 0.00 | 0.01 | 0.00 | 87 | 1012.6 |
| 20260505092118 | 70 | 48 | 0.0 | 3.0 | 0.00 | 0.01 | 0.00 | 87 | 1012.6 |
| 20260505091607 | 70 | 193 | 1.0 | 3.0 | 0.00 | 0.01 | 0.00 | 87 | 1012.5 |
| 20260505091456 | 69 | 192 | 2.0 | 3.0 | 0.00 | 0.01 | 0.00 | 87 | 1012.5 |
| 20260505091058 | 69 | 200 | 0.0 | 5.0 | 0.00 | 0.01 | 0.00 | 86 | 1012.5 |
| 20260505090956 | 69 | 189 | 1.0 | 5.0 | 0.00 | 0.01 | 0.00 | 86 | 1012.6 |
| 20260505090547 | 70 | 48 | 4.0 | 8.0 | 0.00 | 0.01 | 0.00 | 86 | 1012.6 |
| 20260505090456 | 70 | 71 | 3.0 | 8.0 | 0.00 | 0.01 | 0.00 | 86 | 1012.6 |
| 20260505090037 | 70 | 49 | 2.0 | 6.0 | 0.00 | 0.01 | 0.00 | 86 | 1012.6 |
| 20260505085956 | 70 | 61 | 4.0 | 6.0 | 0.00 | 0.01 | 0.00 | 86 | 1012.6 |
| 20260505085528 | 70 | 14 | 2.0 | 5.0 | 0.00 | 0.01 | 0.00 | 86 | 1012.6 |
| 20260505085456 | 70 | 48 | 2.0 | 4.0 | 0.00 | 0.01 | 0.00 | 86 | 1012.6 |
| 20260505085017 | 70 | 260 | 1.0 | 3.0 | 0.00 | 0.01 | 0.00 | 86 | 1012.5 |
| 20260505084956 | 70 | 283 | 1.0 | 3.0 | 0.00 | 0.01 | 0.00 | 86 | 1012.6 |
| 20260505084507 | 69 | 80 | 3.0 | 10.0 | 0.00 | 0.01 | 0.00 | 86 | 1012.7 |
| 20260505084456 | 69 | 83 | 4.0 | 10.0 | 0.00 | 0.01 | 0.00 | 86 | 1012.7 |
| 20260505083956 | 69 | 348 | 0.0 | 14.0 | 0.00 | 0.01 | 0.00 | 86 | 1012.7 |
| 20260505083456 | 70 | 25 | 3.0 | 11.0 | 0.00 | 0.01 | 0.00 | 86 | 1012.8 |
| 20260505083447 | 70 | 43 | 2.0 | 6.0 | 0.00 | 0.01 | 0.00 | 86 | 1012.8 |
| 20260505082956 | 70 | 299 | 1.0 | 5.0 | 0.00 | 0.02 | 0.00 | 86 | 1012.7 |
| 20260505082937 | 70 | 152 | 2.0 | 5.0 | 0.00 | 0.02 | 0.00 | 86 | 1012.7 |
| 20260505082456 | 70 | 27 | 1.0 | 7.0 | 0.00 | 0.05 | 0.00 | 85 | 1012.7 |
| 20260505082428 | 70 | 47 | 2.0 | 7.0 | 0.00 | 0.05 | 0.00 | 85 | 1012.7 |
| 20260505081955 | 70 | 3 | 1.0 | 6.0 | 0.00 | 0.07 | 0.00 | 86 | 1012.6 |
| 20260505081917 | 70 | 22 | 3.0 | 6.0 | 0.00 | 0.07 | 0.00 | 86 | 1012.6 |
| 20260505081456 | 70 | 262 | 1.0 | 5.0 | 0.00 | 0.07 | 0.00 | 85 | 1012.6 |
| 20260505081407 | 70 | 199 | 3.0 | 5.0 | 0.00 | 0.07 | 0.00 | 85 | 1012.6 |
| 20260505080956 | 70 | 329 | 0.0 | 6.0 | 0.00 | 0.07 | 0.00 | 86 | 1012.6 |
| 20260505080456 | 70 | 88 | 8.0 | 15.0 | 0.00 | 0.09 | 0.00 | 85 | 1012.6 |
| 20260505080347 | 70 | 3 | 3.0 | 6.0 | 0.00 | 0.10 | 0.00 | 85 | 1012.6 |
| 20260505075956 | 70 | 25 | 3.0 | 22.0 | 0.00 | 0.11 | 0.00 | 85 | 1012.7 |
| 20260505075837 | 70 | 18 | 5.0 | 22.0 | 0.00 | 0.11 | 0.00 | 85 | 1012.7 |
| 20260505075455 | 70 | 275 | 5.0 | 13.0 | 0.00 | 0.11 | 0.00 | 85 | 1012.7 |
| 20260505074955 | 70 | 42 | 1.0 | 14.0 | 0.00 | 0.11 | 0.00 | 86 | 1012.7 |
| 20260505074817 | 70 | 279 | 4.0 | 14.0 | 0.00 | 0.11 | 0.00 | 85 | 1012.7 |
| 20260505074456 | 70 | 286 | 3.0 | 12.0 | 0.00 | 0.11 | 0.00 | 86 | 1012.8 |
| 20260505074307 | 70 | 161 | 0.0 | 17.0 | 0.00 | 0.11 | 0.00 | 86 | 1012.9 |
| 20260505073955 | 70 | 59 | 9.0 | 17.0 | 0.00 | 0.12 | 0.00 | 85 | 1013.0 |
| 20260505073757 | 70 | 63 | 2.0 | 7.0 | 0.00 | 0.12 | 0.00 | 86 | 1013.0 |
| 20260505073455 | 70 | 250 | 2.0 | 5.0 | 0.00 | 0.12 | 0.00 | 86 | 1012.9 |
| 20260505073247 | 70 | 280 | 1.0 | 5.0 | 0.00 | 0.12 | 0.00 | 86 | 1013.0 |
| 20260505072956 | 70 | 219 | 0.0 | 8.0 | 0.00 | 0.12 | 0.00 | 86 | 1012.9 |
| 20260505072736 | 70 | 91 | 3.0 | 8.0 | 0.00 | 0.12 | 0.00 | 86 | 1013.0 |
| 20260505072455 | 70 | 259 | 3.0 | 8.0 | 0.00 | 0.15 | 0.00 | 86 | 1013.0 |
| 20260505072227 | 70 | 170 | 0.0 | 8.0 | 0.00 | 0.15 | 0.00 | 87 | 1013.0 |
| 20260505071956 | 70 | 311 | 0.0 | 11.0 | 0.00 | 0.16 | 0.00 | 87 | 1013.0 |
| 20260505071716 | 70 | 225 | 7.0 | 11.0 | 0.00 | 0.18 | 0.00 | 86 | 1012.9 |
| 20260505071455 | 70 | 272 | 2.0 | 11.0 | 0.00 | 0.18 | 0.00 | 87 | 1013.0 |
| 20260505071206 | 70 | 183 | 5.0 | 12.0 | 0.00 | 0.20 | 0.00 | 86 | 1013.1 |
| 20260505070955 | 70 | 280 | 2.0 | 12.0 | 0.00 | 0.21 | 0.00 | 87 | 1013.0 |
| 20260505070657 | 70 | 256 | 3.0 | 11.0 | 0.00 | 0.21 | 0.00 | 87 | 1013.0 |
| 20260505070455 | 70 | 228 | 3.0 | 11.0 | 0.01 | 0.21 | 0.00 | 87 | 1013.0 |
| 20260505070146 | 70 | 239 | 4.0 | 9.0 | 0.01 | 0.22 | 0.00 | 87 | 1013.0 |
| 20260505065955 | 70 | 158 | 4.0 | 9.0 | 0.01 | 0.24 | 0.00 | 87 | 1013.1 |
| 20260505065636 | 70 | 298 | 3.0 | 9.0 | 0.01 | 0.24 | 0.00 | 88 | 1013.1 |
| 20260505065455 | 70 | 11 | 3.0 | 8.0 | 0.01 | 0.24 | 0.00 | 88 | 1013.2 |
| 20260505065126 | 69 | 220 | 2.0 | 10.0 | 0.01 | 0.24 | 0.00 | 87 | 1013.3 |
| 20260505064955 | 70 | 212 | 2.0 | 10.0 | 0.01 | 0.24 | 0.00 | 87 | 1013.4 |
| 20260505064616 | 70 | 82 | 1.0 | 8.0 | 0.01 | 0.25 | 0.00 | 88 | 1013.4 |
| 20260505064455 | 70 | 324 | 3.0 | 8.0 | 0.01 | 0.27 | 0.00 | 88 | 1013.5 |
| 20260505064107 | 70 | 274 | 1.0 | 9.0 | 0.01 | 0.27 | 0.00 | 88 | 1013.5 |
| 20260505063955 | 70 | 323 | 0.0 | 11.0 | 0.01 | 0.27 | 0.00 | 88 | 1013.5 |
| 20260505063556 | 69 | 263 | 2.0 | 18.0 | 0.01 | 0.27 | 0.00 | 88 | 1013.4 |
| 20260505063455 | 69 | 241 | 3.0 | 18.0 | 0.01 | 0.27 | 0.00 | 88 | 1013.5 |
| 20260505063046 | 69 | 291 | 4.0 | 11.0 | 0.01 | 0.27 | 0.00 | 88 | 1013.6 |
| 20260505062955 | 69 | 193 | 5.0 | 11.0 | 0.01 | 0.27 | 0.00 | 88 | 1013.6 |
| 20260505062536 | 70 | 26 | 0.0 | 5.0 | 0.01 | 0.29 | 0.00 | 88 | 1013.6 |
| 20260505062454 | 70 | 52 | 0.0 | 5.0 | 0.01 | 0.30 | 0.00 | 88 | 1013.6 |
| 20260505062026 | 69 | 23 | 2.0 | 7.0 | 0.01 | 0.31 | 0.00 | 88 | 1013.7 |
| 20260505061955 | 69 | 39 | 4.0 | 7.0 | 0.01 | 0.31 | 0.00 | 88 | 1013.7 |
| 20260505061517 | 69 | 224 | 5.0 | 11.0 | 0.01 | 0.33 | 0.00 | 88 | 1013.6 |
| 20260505061455 | 69 | 223 | 5.0 | 11.0 | 0.01 | 0.33 | 0.00 | 88 | 1013.6 |
| 20260505061006 | 69 | 204 | 6.0 | 11.0 | 0.01 | 0.33 | 0.00 | 88 | 1013.7 |
| 20260505060955 | 69 | 242 | 5.0 | 11.0 | 0.01 | 0.33 | 0.00 | 88 | 1013.6 |
| 20260505060457 | 69 | 222 | 5.0 | 14.0 | 0.00 | 0.34 | 0.00 | 88 | 1013.7 |
| 20260505060455 | 69 | 219 | 5.0 | 14.0 | 0.00 | 0.34 | 0.00 | 88 | 1013.7 |
| 20260505055955 | 69 | 244 | 5.0 | 12.0 | 0.00 | 0.35 | 0.00 | 88 | 1013.8 |
| 20260505055945 | 69 | 276 | 5.0 | 12.0 | 0.00 | 0.35 | 0.00 | 88 | 1013.9 |
| 20260505055454 | 69 | 232 | 3.0 | 6.0 | 0.00 | 0.35 | 0.00 | 88 | 1013.9 |
| 20260505055436 | 69 | 274 | 3.0 | 6.0 | 0.00 | 0.35 | 0.00 | 88 | 1014.0 |
| 20260505054955 | 69 | 54 | 1.0 | 11.0 | 0.00 | 0.37 | 0.00 | 88 | 1014.1 |
| 20260505054926 | 69 | 204 | 3.0 | 12.0 | 0.00 | 0.37 | 0.00 | 88 | 1014.0 |
| 20260505054454 | 69 | 249 | 4.0 | 12.0 | 0.00 | 0.38 | 0.00 | 88 | 1014.0 |
| 20260505054416 | 69 | 239 | 3.0 | 10.0 | 0.00 | 0.38 | 0.00 | 88 | 1014.0 |
| 20260505053954 | 69 | 276 | 4.0 | 7.0 | 0.00 | 0.38 | 0.00 | 88 | 1014.0 |
| 20260505053906 | 69 | 239 | 2.0 | 7.0 | 0.00 | 0.38 | 0.00 | 88 | 1014.0 |
| 20260505053454 | 69 | 1 | 0.0 | 2.0 | 0.00 | 0.40 | 0.00 | 88 | 1014.2 |
| 20260505053356 | 69 | 309 | 0.0 | 5.0 | 0.00 | 0.40 | 0.00 | 88 | 1014.2 |
| 20260505052955 | 69 | 253 | 3.0 | 7.0 | 0.00 | 0.41 | 0.00 | 87 | 1014.4 |
| 20260505052454 | 69 | 226 | 4.0 | 10.0 | 0.00 | 0.42 | 0.00 | 87 | 1014.4 |
| 20260505051954 | 69 | 216 | 4.0 | 12.0 | 0.00 | 0.42 | 0.00 | 87 | 1014.6 |
| 20260505051455 | 69 | 214 | 1.0 | 7.0 | 0.00 | 0.42 | 0.00 | 87 | 1014.5 |
| 20260505051315 | 69 | 286 | 3.0 | 7.0 | 0.00 | 0.42 | 0.00 | 87 | 1014.5 |
| 20260505050954 | 69 | 225 | 2.0 | 7.0 | 0.00 | 0.42 | 0.00 | 87 | 1014.6 |
| 20260505050454 | 69 | 35 | 0.0 | 14.0 | 0.00 | 0.43 | 0.00 | 87 | 1014.6 |
| 20260505050256 | 69 | 58 | 6.0 | 14.0 | 0.00 | 0.44 | 0.00 | 87 | 1014.6 |
| 20260505041625 | 69 | 267 | 0.0 | 4.0 | 0.00 | 0.47 | 0.00 | 88 | 1015.2 |
| 20260505041454 | 69 | 240 | 0.0 | 5.0 | 0.00 | 0.47 | 0.00 | 87 | 1015.2 |
| 20260505041115 | 69 | 300 | 1.0 | 5.0 | 0.00 | 0.47 | 0.00 | 88 | 1015.1 |
| 20260505040954 | 69 | 282 | 2.0 | 5.0 | 0.00 | 0.47 | 0.00 | 88 | 1015.2 |
| 20260505040605 | 69 | 305 | 1.0 | 11.0 | 0.00 | 0.47 | 0.00 | 88 | 1015.2 |
| 20260505040454 | 69 | 301 | 4.0 | 13.0 | 0.00 | 0.48 | 0.00 | 88 | 1015.2 |
| 20260505035954 | 69 | 237 | 8.0 | 13.0 | 0.00 | 0.48 | 0.00 | 87 | 1015.3 |
| 20260505035546 | 69 | 183 | 3.0 | 9.0 | 0.00 | 0.48 | 0.00 | 88 | 1015.3 |
| 20260505035453 | 69 | 255 | 2.0 | 9.0 | 0.00 | 0.48 | 0.00 | 87 | 1015.3 |
| 20260505035035 | 69 | 65 | 1.0 | 5.0 | 0.00 | 0.48 | 0.00 | 88 | 1015.3 |
| 20260505034954 | 69 | 35 | 0.0 | 2.0 | 0.00 | 0.48 | 0.00 | 88 | 1015.3 |
| 20260505034524 | 69 | 301 | 0.0 | 10.0 | 0.00 | 0.48 | 0.00 | 88 | 1015.5 |
| 20260505034453 | 69 | 15 | 0.0 | 10.0 | 0.00 | 0.48 | 0.00 | 88 | 1015.5 |
| 20260505034015 | 68 | 286 | 1.0 | 11.0 | 0.00 | 0.48 | 0.00 | 88 | 1015.6 |
| 20260505033953 | 68 | 300 | 1.0 | 11.0 | 0.00 | 0.48 | 0.00 | 88 | 1015.6 |
| 20260505033505 | 68 | 221 | 7.0 | 10.0 | 0.00 | 0.48 | 0.00 | 88 | 1015.7 |
| 20260505033454 | 68 | 228 | 6.0 | 10.0 | 0.00 | 0.48 | 0.00 | 88 | 1015.7 |
| 20260505032956 | 68 | 297 | 2.0 | 8.0 | 0.00 | 0.48 | 0.00 | 88 | 1015.7 |
| 20260505032953 | 68 | 292 | 2.0 | 8.0 | 0.00 | 0.48 | 0.00 | 88 | 1015.7 |
| 20260505032454 | 68 | 211 | 2.0 | 12.0 | 0.00 | 0.48 | 0.00 | 88 | 1015.6 |
| 20260505032445 | 68 | 242 | 1.0 | 12.0 | 0.00 | 0.48 | 0.00 | 88 | 1015.6 |
| 20260505031953 | 68 | 251 | 4.0 | 7.0 | 0.00 | 0.49 | 0.00 | 88 | 1015.7 |
| 20260505031934 | 68 | 248 | 3.0 | 7.0 | 0.00 | 0.49 | 0.00 | 88 | 1015.7 |
| 20260505031453 | 68 | 40 | 5.0 | 16.0 | 0.00 | 0.49 | 0.00 | 88 | 1015.7 |
| 20260505031425 | 68 | 56 | 9.0 | 16.0 | 0.00 | 0.49 | 0.00 | 88 | 1015.7 |
| 20260505030953 | 68 | 211 | 3.0 | 8.0 | 0.00 | 0.49 | 0.00 | 89 | 1015.7 |
| 20260505030914 | 68 | 360 | 1.0 | 5.0 | 0.00 | 0.49 | 0.00 | 89 | 1015.7 |
| 20260505030453 | 68 | 306 | 1.0 | 7.0 | 0.00 | 0.49 | 0.00 | 89 | 1015.8 |
| 20260505030405 | 68 | 345 | 1.0 | 7.0 | 0.00 | 0.49 | 0.00 | 89 | 1015.8 |
| 20260505025954 | 68 | 241 | 3.0 | 4.0 | 0.00 | 0.49 | 0.00 | 89 | 1015.8 |
| 20260505025855 | 68 | 241 | 1.0 | 3.0 | 0.00 | 0.49 | 0.00 | 89 | 1015.8 |
| 20260505025453 | 68 | 285 | 0.0 | 5.0 | 0.00 | 0.50 | 0.00 | 89 | 1015.9 |
| 20260505025344 | 68 | 289 | 1.0 | 6.0 | 0.00 | 0.50 | 0.00 | 89 | 1016.0 |
| 20260505024953 | 67 | 221 | 4.0 | 7.0 | 0.00 | 0.50 | 0.00 | 89 | 1016.0 |
| 20260505024453 | 68 | 199 | 6.0 | 10.0 | 0.00 | 0.50 | 0.00 | 88 | 1016.0 |
| 20260505024324 | 68 | 207 | 6.0 | 10.0 | 0.00 | 0.50 | 0.00 | 89 | 1016.0 |
| 20260505023953 | 67 | 326 | 0.0 | 8.0 | 0.00 | 0.50 | 0.00 | 89 | 1015.9 |
| 20260505023815 | 67 | 346 | 1.0 | 9.0 | 0.00 | 0.50 | 0.00 | 89 | 1015.9 |
| 20260505023453 | 67 | 48 | 4.0 | 9.0 | 0.00 | 0.50 | 0.00 | 88 | 1016.0 |
| 20260505023304 | 67 | 180 | 2.0 | 17.0 | 0.00 | 0.50 | 0.00 | 88 | 1016.0 |
| 20260505022953 | 67 | 180 | 5.0 | 17.0 | 0.00 | 0.50 | 0.00 | 89 | 1016.0 |
| 20260505022755 | 67 | 342 | 1.0 | 7.0 | 0.00 | 0.50 | 0.00 | 89 | 1016.0 |
| 20260505022453 | 67 | 302 | 1.0 | 13.0 | 0.00 | 0.50 | 0.00 | 88 | 1016.0 |
| 20260505022244 | 67 | 251 | 6.0 | 20.0 | 0.00 | 0.50 | 0.00 | 88 | 1015.9 |
| 20260505021953 | 67 | 60 | 7.0 | 20.0 | 0.00 | 0.51 | 0.00 | 88 | 1015.9 |
| 20260505021734 | 67 | 250 | 3.0 | 7.0 | 0.00 | 0.51 | 0.00 | 88 | 1015.9 |
| 20260505021454 | 67 | 191 | 2.0 | 6.0 | 0.00 | 0.51 | 0.00 | 88 | 1015.9 |
| 20260505021224 | 67 | 275 | 1.0 | 6.0 | 0.00 | 0.51 | 0.00 | 89 | 1015.9 |
| 20260505020954 | 67 | 212 | 3.0 | 8.0 | 0.00 | 0.51 | 0.00 | 89 | 1015.9 |
| 20260505020714 | 67 | 231 | 5.0 | 11.0 | 0.00 | 0.51 | 0.00 | 88 | 1015.9 |
| 20260505020453 | 67 | 292 | 3.0 | 11.0 | 0.00 | 0.51 | 0.00 | 88 | 1015.9 |
| 20260505020205 | 67 | 239 | 1.0 | 4.0 | 0.00 | 0.51 | 0.00 | 89 | 1015.9 |
| 20260505015952 | 67 | 283 | 2.0 | 6.0 | 0.00 | 0.51 | 0.00 | 88 | 1016.0 |
| 20260505015654 | 67 | 138 | 1.0 | 9.0 | 0.00 | 0.51 | 0.00 | 88 | 1016.0 |
| 20260505015453 | 67 | 193 | 3.0 | 15.0 | 0.00 | 0.51 | 0.00 | 88 | 1016.0 |
| 20260505015144 | 67 | 244 | 3.0 | 15.0 | 0.00 | 0.51 | 0.00 | 88 | 1015.9 |
| 20260505014953 | 67 | 61 | 4.0 | 11.0 | 0.00 | 0.51 | 0.00 | 88 | 1016.1 |
| 20260505014452 | 67 | 310 | 5.0 | 9.0 | 0.00 | 0.51 | 0.00 | 88 | 1016.0 |
| 20260505014124 | 67 | 214 | 4.0 | 8.0 | 0.00 | 0.51 | 0.00 | 88 | 1016.0 |
| 20260505013953 | 67 | 197 | 3.0 | 8.0 | 0.00 | 0.51 | 0.00 | 88 | 1016.0 |
| 20260505013614 | 66 | 253 | 2.0 | 10.0 | 0.00 | 0.51 | 0.00 | 88 | 1016.0 |
| 20260505013453 | 66 | 287 | 6.0 | 10.0 | 0.00 | 0.51 | 0.00 | 88 | 1016.0 |
| 20260505013104 | 67 | 288 | 2.0 | 8.0 | 0.00 | 0.51 | 0.00 | 88 | 1016.0 |
| 20260505012952 | 67 | 347 | 0.0 | 8.0 | 0.00 | 0.51 | 0.00 | 88 | 1016.0 |
| 20260505012452 | 66 | 236 | 3.0 | 9.0 | 0.00 | 0.51 | 0.00 | 88 | 1016.0 |
| 20260505011953 | 66 | 229 | 2.0 | 7.0 | 0.00 | 0.51 | 0.00 | 88 | 1016.0 |
| 20260505011533 | 66 | 44 | 3.0 | 9.0 | 0.00 | 0.51 | 0.00 | 88 | 1015.9 |
| 20260505011452 | 66 | 49 | 4.0 | 9.0 | 0.00 | 0.51 | 0.00 | 88 | 1015.9 |
| 20260505011023 | 67 | 2 | 0.0 | 5.0 | 0.00 | 0.51 | 0.00 | 88 | 1016.0 |
| 20260505010952 | 67 | 318 | 0.0 | 5.0 | 0.00 | 0.51 | 0.00 | 88 | 1016.0 |
| 20260505010514 | 66 | 228 | 4.0 | 8.0 | 0.00 | 0.51 | 0.00 | 87 | 1016.0 |
| 20260505010452 | 66 | 248 | 2.0 | 8.0 | 0.00 | 0.51 | 0.00 | 87 | 1016.0 |
| 20260505005953 | 66 | 314 | 3.0 | 17.0 | 0.00 | 0.51 | 0.00 | 87 | 1015.9 |
| 20260505005454 | 67 | 333 | 3.0 | 6.0 | 0.00 | 0.51 | 0.00 | 87 | 1015.9 |
| 20260505005452 | 67 | 334 | 3.0 | 6.0 | 0.00 | 0.51 | 0.00 | 87 | 1015.9 |